Weather in Syrt

Russia / Orenburg Oblast     51°52′20″N   54°31′27″E
temp.,
°C
wind,
m/s
gust,
m/s
humid.,
%
clouds,
%
prec.,
mm/h
press.,
hPa
HPBL,
m
13 june, sun
sun1323:00+16ne228619 3.9 101420
02:00+15e34932 0.0 101461
05:00+15e34961 0.0 101580
08:00+19ese45820 0.0 1016347
11:00+24se44600 0.0 1016927
14:00+27se654430 0.2 10151921
17:00+27ese44404 0.2 10151698
20:00+25e33515 0.0 101543
14 june, mon
mon1423:00+20ne46635 0.0 101690
02:00+17ene35645 0.0 101581
05:00+17ene335686 0.0 101738
08:00+20e4951100 0.0 1018294
11:00+27se683392 0.0 1017909
14:00+30se79275 0.0 10171589
17:00+30se69305 0.0 1016935
20:00+26ese494755 0.0 1015166
15 june, tue
tue1523:00+22ese51247100 0.0 1016231
02:00+19ese224972 0.0 101619
05:00+18ene115219 0.0 101611
08:00+21e465389 0.0 1016193
11:00+28se563429 0.0 1016969
14:00+31se572633 0.0 10142908
17:00+31s562587 0.0 10133250
20:00+26wnw2249100 0.0 101218
16 june, wed
wed1623:00+22sse114876 0.0 101211
02:00+22ese4647100 0.0 101285
05:00+20e224988 0.0 101215
08:00+23ese4114898 0.0 1012347
11:00+28se71034100 0.0 10111124
14:00+31sse81025100 0.0 10102197
17:00+32sse6927100 0.0 10082460
20:00+29ese334125 0.0 100727
17 june, thu
thu1723:00+22ssw11633 1.8 100811
02:00+20wsw4974100 0.1 1008139
05:00+19wsw410830 0.1 1008211
08:00+21w6107437 0.0 1008439
11:00+25wnw67614 0.0 10091040
14:00+27nw885138 0.1 10101907
17:00+25nnw795432 0.3 10111639
20:00+21nnw710510 0.0 1013856